Dewpoint
57 46 46 40 23 21 21 22 21 20 21 27 25 23 30 51 54 52 62 66 72 73 76 77 77 77 77 77 76 76 76 76 76 76 76 77 77 76 76 76 76 76 76 75 74 74 73 72 72
58 46 41 34 19 19 20 22 21 19 22 27 26 25 44 54 59 62 65 70 72 73 75 77 77 77 77 77 76 76 76 76 76 75 76 77 76 76 76 76 76 76 76 75 74 74 73 72 72
59 53 42 22 20 19 20 22 23 24 24 24 26 26 33 55 60 61 66 70 72 72 74 77 77 77 77 77 76 76 76 76 76 75 76 76 76 76 76 76 76 76 75 75 74 73 72 72 72
46 45 39 20 19 22 22 24 25 24 24 21 27 30 44 56 60 66 69 70 70 70 75 77 77 77 77 76 76 76 76 75 76 75 76 76 76 76 76 76 75 75 74 73 73 72 72 72 71
45 37 24 18 17 18 20 21 23 23 24 20 21 26 44 54 61 68 69 70 70 71 75 77 77 77 77 76 76 76 76 75 76 75 76 76 75 76 76 75 75 74 74 72 72 72 73 72 72
37 32 24 17 15 15 15 19 23 23 24 25 20 23 43 49 59 65 69 69 70 73 75 76 77 77 76 76 76 75 75 75 76 75 76 76 76 75 75 75 75 75 74 73 72 73 73 72 72
32 33 26 21 18 15 13 14 17 18 21 23 20 20 37 46 53 58 68 68 69 72 74 75 76 76 76 76 75 75 75 75 75 75 75 75 75 75 75 75 75 74 74 73 73 73 72 72 72
30 29 27 27 23 17 14 13 12 12 13 16 21 23 28 39 49 55 62 67 69 71 72 74 75 74 75 75 76 75 75 75 75 75 75 75 75 75 75 74 74 74 73 73 72 72 71 71 71
24 24 23 23 23 22 20 18 17 17 15 15 16 17 21 51 52 53 55 65 69 70 70 71 74 74 74 75 75 75 75 75 75 75 75 74 74 74 74 74 74 74 73 73 72 71 71 71 71
22 21 21 23 22 21 19 18 19 18 17 18 20 21 18 20 45 48 55 56 67 69 68 68 70 71 72 73 73 74 73 74 73 73 73 72 72 71 71 73 74 74 73 72 72 71 71 71 67
20 17 17 16 16 16 15 14 18 17 16 18 20 23 19 17 28 39 42 56 62 68 67 67 68 67 68 71 72 73 73 72 72 72 72 68 70 70 70 72 72 71 72 69 70 70 70 67 66
18 21 20 15 14 12 11 13 13 12 14 18 18 20 27 27 23 32 39 42 56 66 66 67 66 65 64 71 70 70 70 70 68 70 69 67 68 68 70 70 69 69 68 68 66 66 66 65 63
19 18 16 14 13 13 14 13 14 14 15 16 17 19 25 26 29 28 31 42 46 66 66 66 66 64 66 67 65 66 65 66 66 68 67 67 67 67 69 69 68 67 66 66 65 64 64 64 65
20 20 19 19 18 16 14 14 15 16 18 17 16 18 22 23 25 29 30 40 45 64 66 66 65 64 66 63 63 64 64 64 64 67 65 66 68 66 66 68 66 65 65 64 66 64 66 68 67
19 16 16 17 18 18 18 15 13 13 14 13 17 19 19 21 23 23 27 34 41 65 66 66 66 67 64 63 64 63 63 63 64 66 64 65 69 66 67 68 65 64 66 64 69 69 70 68 68
15 15 13 14 15 13 15 13 14 14 13 12 11 12 20 22 23 23 25 29 40 67 67 67 66 68 65 63 64 64 64 64 64 65 65 64 69 68 67 66 64 66 69 70 70 69 68 68 66
14 10 10 10 11 11 12 12 14 15 13 12 12 12 15 19 23 23 25 30 37 68 69 69 68 68 67 67 66 66 65 65 66 66 65 64 69 68 67 65 64 70 70 69 69 70 69 68 67
16 13 12 11 11 11 9 8 12 16 18 16 18 20 18 18 20 22 23 29 32 65 71 70 72 72 70 70 69 68 67 65 68 66 65 68 69 68 66 65 70 72 71 69 69 69 68 67 65
16 15 15 17 18 17 13 9 11 13 16 16 17 19 20 23 26 28 24 25 37 53 70 71 72 72 72 71 70 68 69 67 68 66 66 68 69 68 67 71 72 70 69 69 68 68 66 64 63
18 16 13 15 20 20 26 18 18 20 18 19 20 19 19 18 18 21 28 28 27 39 70 71 71 71 70 72 71 70 68 66 68 67 67 68 68 67 68 71 71 70 69 69 68 67 65 64 61
17 14 15 17 28 29 30 24 22 25 24 19 19 20 20 18 18 19 21 31 27 28 67 70 71 71 70 70 70 71 69 68 69 67 67 68 68 68 71 71 71 70 69 67 66 66 64 62 61
17 18 19 25 28 25 34 24 25 27 32 27 19 21 17 18 16 18 21 24 35 28 48 69 71 71 69 70 69 69 66 64 67 66 66 68 67 70 72 71 71 69 67 66 64 63 62 61 60
19 20 20 27 29 29 28 28 24 26 24 25 19 20 19 18 17 16 20 22 36 40 37 68 71 72 70 69 69 67 69 69 68 66 68 66 67 71 72 70 68 67 65 64 63 63 63 63 61
23 21 20 26 26 25 25 29 23 25 21 22 22 23 25 21 19 17 16 22 26 38 47 71 71 72 72 71 70 69 69 68 66 67 67 66 70 70 69 68 66 66 65 64 63 63 63 60 59
25 24 25 22 22 19 21 25 28 25 23 26 26 28 29 29 26 23 21 21 23 30 55 70 71 71 71 71 70 70 69 68 67 67 66 69 69 68 67 65 65 65 64 63 63 62 59 58 56
24 28 28 23 23 19 20 18 19 26 32 30 32 35 36 35 33 26 27 21 21 26 61 67 69 71 71 71 70 70 70 69 69 67 67 68 68 67 66 66 65 64 63 64 61 60 58 56 55
25 21 21 26 24 20 19 20 22 28 34 34 38 40 41 41 40 39 27 29 23 26 54 66 69 70 71 70 70 69 70 69 69 67 68 68 67 66 66 65 64 64 62 60 59 55 55 56 54
27 27 22 25 16 16 16 17 18 28 33 35 36 39 41 42 39 40 37 24 33 30 41 65 69 67 70 70 70 69 69 70 69 68 67 66 66 66 65 63 63 61 60 57 56 56 54 52 52
27 26 27 30 30 26 22 22 24 29 34 36 37 40 41 44 39 41 36 26 28 32 30 64 67 68 69 70 70 69 68 69 68 68 67 66 66 64 63 63 61 59 58 56 55 55 52 51 50
30 35 36 32 31 34 33 27 29 29 33 35 39 41 38 42 45 42 38 37 34 34 31 63 66 66 68 69 69 68 69 68 68 67 66 65 63 62 62 60 58 56 55 55 54 51 51 49 48
Lifted_Index
10 10 9 8 6 4 3 2 2 1 0 0 0 -0 -2 -4 -4 -3 -2 -3 -4 -5 -5 -5 -4 -4 -3 -3 -2 -2 -1 -1 -1 -1 -2 -2 -2 -2 -2 -2 -3 -3 -3 -2 -2 -2 -1 -1 -1
9 9 9 7 5 3 2 2 2 1 1 0 0 -0 -2 -4 -5 -4 -3 -4 -4 -4 -5 -5 -5 -4 -3 -3 -2 -2 -2 -1 -1 -1 -2 -2 -2 -2 -2 -3 -3 -3 -2 -2 -2 -2 -1 -1 -1
8 8 7 7 5 4 3 3 2 2 1 1 1 0 -1 -4 -5 -4 -4 -5 -4 -4 -5 -5 -5 -4 -4 -3 -3 -2 -2 -1 -1 -1 -2 -2 -2 -2 -2 -3 -2 -2 -2 -2 -2 -2 -1 -1 -1
8 8 7 6 5 5 4 4 3 2 2 1 1 0 -1 -3 -5 -5 -5 -5 -5 -4 -5 -5 -5 -5 -4 -4 -3 -3 -2 -2 -2 -2 -2 -2 -2 -2 -2 -2 -2 -2 -1 -1 -1 -1 -1 -1 -1
9 8 7 5 5 5 6 5 3 3 2 2 1 0 -1 -3 -4 -5 -5 -6 -5 -5 -5 -5 -5 -5 -4 -4 -3 -3 -2 -2 -2 -2 -2 -2 -2 -2 -2 -2 -2 -1 -1 -1 -1 -1 -1 -1 -1
9 8 6 5 5 6 6 6 4 3 2 2 1 1 -0 -2 -3 -4 -5 -6 -6 -5 -5 -5 -5 -5 -5 -4 -4 -3 -2 -2 -2 -2 -2 -3 -2 -2 -2 -2 -1 -1 -1 -1 -1 -1 -1 -1 -1
9 8 6 5 5 6 6 6 5 4 2 2 1 1 0 -0 -1 -3 -5 -6 -6 -5 -5 -5 -5 -5 -5 -4 -4 -3 -3 -3 -3 -3 -3 -3 -3 -2 -2 -2 -1 -1 -1 -1 -1 -1 -1 -1 -1
10 8 7 6 5 6 6 6 5 4 4 3 2 1 1 0 -0 -2 -4 -5 -6 -5 -5 -4 -4 -4 -5 -4 -4 -4 -3 -3 -3 -3 -3 -3 -3 -2 -2 -2 -1 -1 -0 -0 -0 -0 -0 -0 -1
10 9 7 7 7 7 7 7 6 5 4 3 2 1 1 0 -0 -1 -2 -4 -5 -5 -5 -4 -4 -4 -4 -4 -4 -4 -4 -3 -3 -3 -3 -2 -2 -2 -2 -1 -1 -1 -0 0 0 0 0 0 -0
10 9 8 9 9 9 9 8 7 6 4 4 3 3 2 1 1 -0 -1 -3 -4 -5 -5 -5 -4 -3 -3 -4 -4 -4 -3 -3 -3 -2 -2 -1 -1 -1 -1 -1 -1 -1 0 0 0 0 0 0 0
11 10 10 11 11 10 10 9 9 7 6 5 5 4 4 3 3 2 1 -2 -3 -5 -5 -5 -4 -2 -2 -3 -3 -3 -3 -2 -2 -1 -1 -0 -0 -0 -0 -0 -0 0 1 1 1 1 0 0 0
11 11 11 11 11 11 10 10 10 9 8 7 7 6 6 5 5 4 3 1 -2 -4 -4 -5 -4 -2 -1 -1 -2 -2 -2 -1 -1 -0 0 1 0 -0 -0 -0 0 1 2 2 1 1 0 -0 -1
11 11 11 11 11 11 10 10 10 10 10 9 8 7 7 7 7 6 5 3 -0 -3 -4 -4 -4 -3 -1 -0 -0 -0 -0 -0 0 1 1 1 0 -0 -0 0 1 2 2 2 1 0 -1 -1 -2
10 10 10 10 9 9 9 9 9 9 9 9 8 7 7 7 7 7 6 5 1 -3 -4 -4 -4 -3 -2 -1 0 0 1 1 1 1 2 1 0 -0 -0 -0 1 2 2 1 0 -1 -2 -2 -3
9 9 8 8 8 7 7 7 8 8 8 7 6 6 7 7 7 7 7 6 2 -2 -4 -4 -4 -4 -3 -2 -1 0 1 1 1 1 2 1 -0 -1 -1 -1 0 1 1 -0 -1 -2 -2 -3 -3
7 6 6 6 6 6 6 6 6 7 7 7 6 6 6 6 6 6 6 6 3 -2 -4 -4 -4 -4 -3 -3 -2 -1 0 1 1 1 1 1 -1 -2 -1 -1 -0 -0 -1 -2 -2 -3 -3 -3 -3
5 5 5 5 5 5 5 5 5 5 4 5 5 5 5 6 5 5 5 5 3 -2 -5 -5 -4 -4 -4 -3 -3 -2 -1 -1 -0 -0 0 -0 -1 -2 -1 -1 -1 -2 -2 -3 -3 -3 -3 -3 -3
4 4 4 5 5 4 4 4 4 3 2 2 3 4 5 6 6 5 4 4 3 -1 -5 -5 -5 -5 -4 -4 -4 -4 -3 -2 -2 -1 -1 -1 -2 -2 -1 -1 -2 -3 -3 -3 -3 -3 -3 -3 -2
4 4 4 4 4 3 3 3 3 2 1 1 2 2 3 5 6 6 5 4 3 -0 -4 -6 -5 -5 -4 -4 -4 -5 -4 -3 -3 -3 -2 -2 -2 -2 -2 -3 -3 -3 -3 -3 -3 -3 -3 -2 -1
4 4 3 3 2 1 1 1 2 2 1 1 1 2 2 4 5 5 5 4 4 1 -4 -6 -6 -5 -5 -5 -5 -5 -5 -4 -3 -3 -3 -3 -2 -2 -2 -3 -3 -3 -3 -3 -3 -3 -2 -1 0
3 3 2 1 0 -0 -0 0 1 1 1 1 1 1 2 2 3 4 4 4 4 2 -2 -6 -6 -6 -6 -5 -5 -5 -5 -4 -4 -3 -3 -3 -2 -2 -3 -4 -3 -3 -3 -3 -2 -2 -1 0 1
3 3 2 1 0 -0 -0 0 1 1 1 1 1 1 1 2 2 3 3 3 4 3 -0 -5 -7 -7 -6 -6 -5 -5 -5 -5 -4 -3 -3 -3 -3 -3 -4 -4 -4 -4 -3 -2 -1 -0 0 1 1
3 2 2 1 1 1 1 0 1 1 1 0 0 0 0 1 2 3 3 3 3 3 0 -5 -8 -8 -7 -7 -6 -5 -5 -5 -4 -3 -3 -3 -3 -4 -5 -5 -5 -4 -3 -1 1 1 1 1 2
2 2 2 1 1 1 1 0 1 1 0 0 -0 -0 -0 -0 1 2 2 2 3 3 -0 -6 -9 -8 -8 -7 -6 -5 -5 -5 -4 -3 -3 -3 -4 -5 -5 -5 -5 -4 -2 -0 1 1 1 2 3
2 1 1 1 1 1 1 1 1 1 0 -0 -0 -0 -1 -1 -0 1 2 2 2 1 -2 -6 -8 -8 -8 -8 -6 -6 -5 -5 -4 -4 -4 -4 -5 -5 -6 -5 -5 -4 -2 0 1 2 2 3 4
2 1 1 1 1 1 1 2 1 1 -0 -0 -0 -0 -0 -1 -1 -0 1 1 2 1 -3 -7 -8 -8 -8 -8 -7 -6 -5 -5 -4 -4 -5 -5 -5 -5 -5 -5 -5 -3 -2 -0 1 2 3 4 4
2 2 1 1 1 1 2 2 2 1 -0 -1 -0 -0 -0 -0 -1 -1 -0 1 1 1 -2 -6 -8 -8 -8 -8 -7 -6 -5 -5 -5 -5 -5 -5 -5 -5 -5 -5 -4 -3 -2 0 2 2 3 4 4
2 2 1 1 1 1 1 2 2 1 -0 -0 0 0 0 -0 -1 -1 -1 0 1 1 -1 -6 -8 -8 -8 -8 -7 -6 -5 -5 -5 -5 -5 -5 -5 -5 -5 -4 -4 -2 -1 1 2 3 4 4 4
2 1 1 1 0 0 1 2 1 1 0 0 0 0 0 -0 -1 -1 -1 -0 0 1 -0 -5 -8 -8 -8 -8 -7 -6 -5 -5 -5 -5 -5 -5 -5 -5 -4 -4 -3 -1 1 2 3 4 4 4 4
2 1 1 0 0 0 1 2 1 1 0 0 1 1 0 -0 -1 -1 -1 -1 -0 1 -0 -4 -8 -8 -8 -7 -7 -6 -5 -5 -5 -5 -5 -4 -4 -5 -4 -3 -2 -0 2 3 4 4 4 4 4